Regional Weather Roundup
Issued by NWS

Home | Current Version | Previous Version | Graphics & Text | Print | Product List | Glossary On
Versions: 1 2 3 4 5 6 7 8 9 10 11 12 13 14 15 16 17 18 19 20 21 22 23 24 25 26 27 28 29 30 31 32 33 34 35 36 37 38 39 40 41 42 43 44 45 46 47 48 49 50
000
ASUS43 KLSX 231157
RWRMO

WEATHER SUMMARY FOR MISSOURI
NATIONAL WEATHER SERVICE SPRINGFIELD MO
700 AM CDT WED AUG 23 2017

NOTE: "FAIR" INDICATES FEW OR NO CLOUDS BELOW 12,000 FEET WITH NO
       SIGNIFICANT WEATHER AND/OR OBSTRUCTIONS TO VISIBILITY.
       CURRENT SKY AND/OR WEATHER CONDITIONS ARE NOT AVAILABLE FOR
       CHILLICOTHE AND FARMINGTON.

MOZ001>031-035>038-043-044-053-054-231300-
...NORTHERN AND WESTERN MISSOURI...

CITY           SKY/WX    TMP DP  RH WIND       PRES   REMARKS
KANSAS CTY INT PTCLDY    56  52  86 N5        30.16S
6HR MIN TEMP:  56; 6HR MAX TEMP:  61;

LEE`S SUMMIT   CLEAR     55  55 100 MISG      30.16S
6HR MIN TEMP:  55; 6HR MAX TEMP:  62;

ST JOSEPH      FOG       51  51 100 CALM      30.16S VSB 1/4
6HR MIN TEMP:  49; 6HR MAX TEMP:  55;

CHILLICOTHE      N/A     53  52  96 CALM      30.16R
6HR MIN TEMP:  52; 6HR MAX TEMP:  56;


$$
MOZ066>068-077>081-088>096-101>105-231300-
...SOUTHWEST MISSOURI...

CITY           SKY/WX    TMP DP  RH WIND       PRES   REMARKS
SPRINGFIELD    PTCLDY    61  57  87 NE7       30.13R
6HR MIN TEMP:  61; 6HR MAX TEMP:  67;

JOPLIN         CLEAR     61  60  97 NE6       30.13R
6HR MIN TEMP:  61; 6HR MAX TEMP:  70;

BRANSON        CLOUDY    68  61  77 CALM      30.13R

$$
MOZ032>034-039>042-045>050-055>058-069>072-231300-
...CENTRAL MISSOURI...

CITY           SKY/WX    TMP DP  RH WIND       PRES   REMARKS
COLUMBIA       NOT AVBL
JEFFERSON CITY CLEAR     57  56  96 CALM      30.13R
6HR MIN TEMP:  56; 6HR MAX TEMP:  66;

ROLLA          CLEAR     57  56  96 CALM      30.14R
6HR MIN TEMP:  56; 6HR MAX TEMP:  63;

SEDALIA        CLEAR     56  56 100 CALM      30.15S
6HR MIN TEMP:  56; 6HR MAX TEMP:  61;


$$
MOZ051-052-059>065-231300-
...EAST CENTRAL MISSOURI...

CITY           SKY/WX    TMP DP  RH WIND       PRES   REMARKS
ST LOUIS INTL  PTCLDY    61  56  83 W3        30.10S
6HR MIN TEMP:  59; 6HR MAX TEMP:  66;


$$
MOZ072>076-082>087-097>100-106>115-231300-
...SOUTH CENTRAL AND SOUTHEAST MISSOURI...

CITY           SKY/WX    TMP DP  RH WIND       PRES   REMARKS
CAPE GIRARDEAU CLEAR     60  58  92 NW3       30.07R
6HR MIN TEMP:  60; 6HR MAX TEMP:  69;

POPLAR BLUFF   PTCLDY    64  61  90 N6        30.08R
6HR MIN TEMP:  64; 6HR MAX TEMP:  70;

WEST PLAINS    CLOUDY    63  58  83 NE6       30.13R
6HR MIN TEMP:  63; 6HR MAX TEMP:  69;


$$


USA.gov is the U.S. government's official web portal to all federal, state and local government web resources and services.